Location: Newark
(19.5361°N, 155.5761°W)
Time: 15:51:17
(UTC+00:00)

ZACube-1 - Visible Passes

Search period start: 04 April 2020 00:00
Search period end: 14 April 2020 00:00
Orbit: 584 x 667 km, 97.6° (Epoch: 04 April)

Date Brightness Start Highest point End Pass type
(mag) Time Alt. Az. Time Alt. Az. Time Alt. Az.
04 Apr ? 15:05:09 10° E 15:06:11 11° E 15:07:12 10° ESE visible
05 Apr ? 15:22:05 10° NE 15:25:09 20° E 15:28:11 10° SE visible
06 Apr ? 15:40:16 10° NNE 15:44:05 36° E 15:47:53 10° SSE visible
09 Apr ? 15:03:41 10° E 15:04:32 11° E 15:05:22 10° ESE visible
10 Apr ? 15:20:28 10° NE 15:23:29 20° E 15:26:31 10° SE visible
11 Apr ? 15:38:37 10° NNE 15:42:25 36° E 15:46:14 10° SSE visible
